CW2935 Weather Reports


Display with metric or nautical units.
time (UTC)temp
F
wind
direction
speed
MPH
gust
MPH
rain 1hr
in
rain 24hr
in
rain mn
in
humidity
%
barometer
mb
20240414074507 49 58 0.0 0.0 0.00 0.00 0.00 65 1003.4
20240414073005 50 359 0.0 0.0 0.00 0.00 0.00 68 1003.5
20240414071601 51 359 0.0 0.0 0.00 0.00 0.00 61 1003.4
20240414070120 52 359 0.0 1.0 0.00 0.00 0.00 61 1003.2
20240414064612 53 325 0.0 1.0 0.00 0.00 0.00 58 1003.1
20240414063051 55 267 0.0 1.0 0.00 0.00 0.00 55 1002.7
20240414061547 56 8 0.0 2.0 0.00 0.00 0.00 54 1002.7
20240414060041 57 349 0.0 4.0 0.00 0.00 0.00 52 1002.5
20240414054537 58 347 0.0 1.0 0.00 0.00 0.00 52 1002.4
20240414053038 59 25 0.0 2.0 0.00 0.00 0.00 52 1002.0
20240414051533 60 26 0.0 4.0 0.00 0.00 0.00 51 1002.0
20240414050032 61 89 0.0 3.0 0.00 0.00 0.00 49 1001.9
20240414044526 62 347 0.0 3.0 0.00 0.00 0.00 49 1001.7
20240414043026 63 55 0.0 3.0 0.00 0.00 0.00 49 1001.3
20240414041524 63 33 0.0 6.0 0.00 0.00 0.00 52 1001.1
20240414040023 63 83 0.0 3.0 0.00 0.00 0.00 56 1000.9
20240414034522 62 285 0.0 2.0 0.00 0.00 0.00 62 1000.7
20240414033022 61 347 0.0 2.0 0.00 0.00 0.00 63 1000.5
20240414031524 62 244 0.0 1.0 0.00 0.00 0.00 60 1000.0
20240414030020 64 244 0.0 0.0 0.00 0.00 0.00 54 1000.0
20240414024520 65 244 0.0 1.0 0.00 0.00 0.00 53 999.9
20240414023020 66 269 0.0 0.0 0.00 0.00 0.00 51 999.9
20240414021526 67 269 0.0 0.0 0.00 0.00 0.00 50 1000.0
20240414020019 69 269 0.0 0.0 0.00 0.00 0.00 45 999.9
20240414014517 71 269 0.0 0.0 0.00 0.00 0.00 41 999.5
20240414013016 73 269 0.0 0.0 0.00 0.00 0.00 38 999.3
20240414011516 75 270 0.0 0.0 0.00 0.00 0.00 36 999.4
20240414010021 79 270 0.0 2.0 0.00 0.00 0.00 32 999.4
20240414004514 81 274 0.0 2.0 0.00 0.00 0.00 29 999.4
20240414003015 82 239 0.0 3.0 0.00 0.00 0.00 28 999.5
20240414001512 83 236 2.0 6.0 0.00 0.00 0.00 27 999.6
20240414000013 85 224 0.0 4.0 0.00 0.00 0.00 28 999.7
20240413234507 85 272 1.0 6.0 0.00 0.00 0.00 27 999.9
20240413233012 85 176 2.0 8.0 0.00 0.00 0.00 28 1000.2
20240413231501 85 222 3.0 9.0 0.00 0.00 0.00 29 1000.3
20240413230058 85 278 1.0 5.0 0.00 0.00 0.00 30 1000.5
20240413224555 83 256 1.0 4.0 0.00 0.00 0.00 32 1000.7
20240413223053 82 192 3.0 7.0 0.00 0.00 0.00 33 1000.8
20240413221552 81 221 2.0 10.0 0.00 0.00 0.00 34 1001.1
20240413220049 81 220 0.0 11.0 0.00 0.00 0.00 34 1001.2
20240413214546 81 235 2.0 13.0 0.00 0.00 0.00 34 1001.4
20240413213045 83 245 4.0 8.0 0.00 0.00 0.00 31 1001.9
20240413211539 82 171 2.0 13.0 0.00 0.00 0.00 32 1002.3
20240413210042 81 255 3.0 16.0 0.00 0.00 0.00 32 1002.7
20240413204532 82 204 3.0 13.0 0.00 0.00 0.00 31 1003.4
20240413203029 82 151 3.0 12.0 0.00 0.00 0.00 30 1003.6
20240413201525 81 212 4.0 14.0 0.00 0.00 0.00 30 1004.1
20240413200022 81 210 6.0 15.0 0.00 0.00 0.00 29 1004.4
20240413194517 79 171 4.0 16.0 0.00 0.00 0.00 28 1004.6
20240413193012 78 295 6.0 13.0 0.00 0.00 0.00 29 1005.0
20240413191508 77 191 6.0 15.0 0.00 0.00 0.00 29 1005.4
20240413190010 76 195 3.0 15.0 0.00 0.00 0.00 30 1006.0
20240413184502 74 178 6.0 20.0 0.00 0.00 0.00 30 1006.5
20240413183101 73 239 9.0 17.0 0.00 0.00 0.00 29 1006.9
20240413181609 73 218 7.0 17.0 0.00 0.00 0.00 29 1007.0
20240413180051 72 174 7.0 16.0 0.00 0.00 0.00 30 1007.6
20240413174554 72 153 4.0 14.0 0.00 0.00 0.00 31 1008.1
20240413173044 70 194 3.0 14.0 0.00 0.00 0.00 30 1008.6
20240413171540 68 82 4.0 14.0 0.00 0.00 0.00 33 1008.9
20240413170039 67 150 5.0 13.0 0.00 0.00 0.00 32 1009.4
20240413164532 66 96 3.0 16.0 0.00 0.00 0.00 34 1009.8
20240413163028 65 245 2.0 11.0 0.00 0.00 0.00 34 1010.2
20240413161533 65 140 3.0 9.0 0.00 0.00 0.00 35 1010.6
20240413160033 63 167 3.0 8.0 0.00 0.00 0.00 37 1010.9
20240413154516 62 170 1.0 11.0 0.00 0.00 0.00 38 1011.4
20240413153014 61 150 5.0 10.0 0.00 0.00 0.00 38 1011.9
20240413151511 60 118 2.0 10.0 0.00 0.00 0.00 40 1012.2
20240413150006 59 114 3.0 8.0 0.00 0.00 0.00 43 1012.3
20240413144501 57 84 3.0 11.0 0.00 0.00 0.00 45 1012.7
20240413143057 55 166 3.0 10.0 0.00 0.00 0.00 48 1012.9
20240413141554 54 72 1.0 8.0 0.00 0.00 0.00 52 1013.2
20240413140052 52 184 2.0 9.0 0.00 0.00 0.00 56 1013.9
20240413134546 50 181 1.0 5.0 0.00 0.00 0.00 60 1014.2
20240413133039 48 167 0.0 6.0 0.00 0.00 0.00 64 1014.5
20240413131545 46 72 0.0 4.0 0.00 0.00 0.00 71 1014.7
20240413130030 43 158 0.0 2.0 0.00 0.00 0.00 81 1014.9
20240413124526 39 111 0.0 1.0 0.00 0.00 0.00 94 1015.3
20240413123024 36 233 0.0 0.0 0.00 0.00 0.00 95 1015.4
20240413121520 0 0.0 0.0 0.00 0.00 0.00 1015.4
20240413120023 0 0.0 0.0 0.00 0.00 0.00 1015.4
20240413114513 0 0.0 0.0 0.00 0.00 0.00 1015.6
20240413113012 0 0.0 0.0 0.00 0.00 0.00 1015.7
20240413111503 0 0.0 0.0 0.00 0.00 0.00 1015.8
20240413110102 0 0.0 0.0 0.00 0.00 0.00 1016.0
20240413104559 34 232 0.0 0.0 0.00 0.00 0.00 95 1016.1
20240413103103 34 233 0.0 0.0 0.00 0.00 0.00 95 1016.3
20240413101555 34 233 0.0 0.0 0.00 0.00 0.00 94 1016.2
20240413100057 35 233 0.0 0.0 0.00 0.00 0.00 94 1016.2
20240413094549 35 233 0.0 0.0 0.00 0.00 0.00 94 1016.4
20240413093047 35 233 0.0 0.0 0.00 0.00 0.00 94 1016.4
20240413091606 35 233 0.0 0.0 0.00 0.00 0.00 94 1016.6
20240413090048 35 233 0.0 0.0 0.00 0.00 0.00 93 1016.6
20240413084543 36 233 0.0 1.0 0.00 0.00 0.00 93 1016.5
20240413083040 36 233 0.0 1.0 0.00 0.00 0.00 93 1016.5
20240413081539 36 233 0.0 0.0 0.00 0.00 0.00 92 1016.6
20240413080042 36 233 0.0 0.0 0.00 0.00 0.00 92 1016.6